EHI
0 0 0 0 0 0 0 0 0 0 0 0 0 1 3 5 7 12 18 20 20 24 30 35 37 37 38 41 42 39 35 34 38 44 45 39 30 24 15 7 5 3 2 1
0 0 0 0 0 0 0 0 0 0 0 0 0 1 3 4 5 10 17 19 19 23 29 33 36 37 38 38 38 36 34 33 34 38 42 40 33 25 15 7 4 3 2 2
0 0 0 0 0 0 0 0 0 0 0 0 0 1 3 3 4 8 14 17 17 20 24 27 32 36 37 36 34 31 31 31 28 29 33 35 31 22 12 6 3 2 2 2
0 0 0 0 0 0 0 0 0 0 0 0 0 0 2 3 3 7 11 14 16 18 20 23 27 32 34 33 30 27 26 25 23 22 23 24 22 16 9 5 3 3 3 4
0 0 0 0 0 0 0 0 0 0 0 0 0 0 1 3 3 5 8 11 13 15 18 21 25 28 30 28 26 24 22 19 15 14 15 16 14 11 10 6 4 4 5 6
0 0 0 0 0 0 0 0 0 0 0 0 0 0 1 2 3 4 6 9 11 13 17 20 22 25 27 26 23 21 19 14 9 7 10 11 9 8 8 4 2 4 6 7
0 0 0 0 0 0 0 0 0 0 0 0 0 0 1 1 1 3 5 7 9 12 15 19 22 25 26 24 21 19 16 12 6 4 6 6 5 4 3 1 0 2 4 6
0 0 0 0 0 0 0 0 0 0 0 0 0 0 1 0 0 1 4 7 9 10 12 16 21 24 24 20 18 17 15 11 6 5 4 4 3 3 2 1 0 1 3 4
0 0 0 0 0 0 0 0 0 0 0 0 0 0 0 0 0 1 4 7 9 9 8 11 17 22 20 17 15 14 13 10 7 6 5 5 4 3 3 2 1 1 3 4
0 0 0 0 0 0 0 0 0 0 0 0 0 0 0 0 0 2 4 7 9 9 8 9 15 19 17 14 12 10 10 10 8 7 6 4 3 3 4 4 4 4 4 5
0 0 0 0 0 0 0 0 0 0 0 0 0 0 0 0 0 1 2 6 10 10 9 10 15 18 18 14 10 8 8 9 9 7 6 4 3 3 3 4 6 6 5 5
0 0 0 0 0 0 0 0 0 0 0 0 0 0 0 0 0 0 1 5 10 10 8 10 14 18 18 15 11 8 8 9 9 9 6 4 2 2 2 4 6 6 5 4
0 0 0 0 0 0 0 0 0 0 0 0 0 0 0 0 1 1 1 4 8 8 8 10 15 17 17 14 12 10 9 9 9 9 7 4 2 2 2 3 5 6 5 5
0 0 0 0 0 0 0 0 0 0 0 0 0 0 0 1 1 1 2 4 7 8 8 13 19 20 17 14 13 11 9 8 8 8 7 4 3 3 3 3 5 6 5 5
0 0 0 0 0 0 0 0 0 0 0 0 0 0 1 2 2 2 3 6 9 10 11 17 23 24 22 19 16 13 10 8 7 8 8 6 4 3 3 4 5 6 6 6
0 0 0 0 0 0 0 0 0 0 0 1 0 1 2 3 3 3 4 6 10 12 13 18 24 26 27 26 21 16 12 9 8 8 9 8 5 3 4 5 7 9 10 10
2 2 1 0 0 0 0 0 0 0 0 0 0 1 3 3 3 5 6 8 11 13 12 15 19 24 26 27 24 19 14 13 11 9 10 9 6 4 4 6 11 15 15 14
5 4 2 1 0 0 0 0 0 0 0 0 0 1 3 4 3 5 8 11 14 14 10 9 11 16 20 22 22 21 20 21 18 15 14 14 12 8 7 9 14 19 20 17
4 4 2 1 0 0 0 0 0 0 0 0 1 2 3 4 2 4 8 12 15 15 12 9 8 11 15 18 19 21 24 26 24 22 22 23 21 17 15 17 21 25 25 22
1 1 1 0 0 0 0 0 0 0 0 0 1 2 3 4 4 4 8 10 13 15 15 15 14 15 18 19 21 23 24 25 25 26 27 27 26 25 26 29 32 32 30 29
0 0 0 0 0 0 0 0 0 0 0 0 1 2 3 4 5 5 6 7 9 11 13 14 16 18 21 23 26 27 26 25 25 25 26 25 24 25 27 33 36 33 29 27
0 0 0 0 0 0 0 0 0 0 0 0 0 1 2 4 4 4 4 4 5 5 6 8 10 13 17 23 27 28 27 27 26 24 22 21 21 19 20 26 30 28 24 22
0 0 1 0 0 0 0 0 0 0 0 0 0 0 0 1 2 3 3 3 2 1 2 4 5 8 11 16 21 24 24 25 25 23 21 21 21 19 18 20 21 21 19 17
0 0 0 0 0 0 0 0 0 0 0 0 0 0 0 0 1 2 2 1 1 1 1 1 3 4 6 10 15 19 22 23 24 22 21 22 23 22 20 17 15 15 14 12
0 0 0 0 0 0 0 0 0 0 0 0 0 0 0 0 0 1 1 0 0 1 0 1 2 2 3 5 9 13 18 21 22 21 21 20 20 20 19 14 10 9 8 7
0 0 0 0 0 0 0 0 0 0 0 0 1 1 1 0 0 0 0 0 0 1 0 1 2 2 1 2 5 9 13 16 19 19 18 17 16 17 16 11 6 4 4 3
Wind_Speed
12 13 14 13 12 8 6 8 8 5 2 6 8 7 4 4 6 7 7 7 8 8 9 10 11 11 12 13 14 15 14 14 11 9 9 9 8 7 6 6 8 8 8 8
12 16 14 8 8 10 10 11 9 4 3 6 7 7 3 5 6 6 7 7 8 9 9 9 10 11 12 13 14 14 15 14 13 10 8 7 8 7 7 6 7 8 8 8
16 8 10 11 12 12 12 11 8 6 3 6 7 9 6 5 6 6 7 7 7 8 9 10 11 12 12 13 14 13 14 14 14 12 9 7 7 6 7 8 7 8 8 8
14 10 9 12 13 12 11 7 8 8 8 5 4 8 5 5 6 7 7 7 7 8 9 9 10 12 13 13 13 13 14 13 14 13 12 13 10 9 9 7 7 8 8 8
11 11 13 14 13 11 8 3 7 8 9 8 7 9 2 4 5 5 6 7 7 8 9 9 10 11 12 12 13 13 14 13 13 13 13 12 10 8 7 7 8 8 8 8
10 7 10 11 10 9 6 6 6 8 9 10 5 7 3 1 2 2 5 6 7 7 7 8 8 10 11 12 12 13 14 13 13 13 13 12 12 10 10 10 9 8 7 7
12 12 10 8 10 10 10 10 8 9 8 6 2 6 3 3 1 1 4 6 6 7 7 8 9 10 11 12 12 13 14 13 14 13 12 12 12 12 12 11 10 9 8 7
12 12 12 10 11 8 12 12 9 7 6 4 5 5 1 3 2 1 4 5 6 7 7 8 9 10 10 12 12 13 14 13 13 14 12 11 12 9 9 11 10 10 8 8
9 8 8 8 9 10 10 11 9 10 9 7 4 2 3 4 3 3 5 7 7 7 7 8 9 10 11 12 12 13 14 13 13 13 12 12 12 10 10 10 10 9 7 7
6 6 8 6 7 7 9 8 7 9 8 8 6 5 2 1 2 4 5 7 7 8 8 9 9 10 10 11 11 12 13 13 13 13 12 11 12 11 10 10 11 9 9 8
9 8 7 9 10 10 9 9 9 8 8 8 6 1 3 2 1 2 5 6 8 8 9 9 9 10 11 11 11 11 12 13 13 13 12 11 11 12 12 11 11 10 10 10
9 8 8 8 2 3 7 9 9 8 7 8 8 1 7 4 2 2 4 5 6 7 9 10 10 10 11 11 12 12 12 13 13 13 12 12 12 12 12 12 12 11 11 11
7 7 9 9 9 8 8 8 8 8 7 8 9 2 7 4 3 2 3 5 6 7 8 9 10 10 10 11 12 12 13 13 14 14 13 13 12 12 12 12 11 11 11 11
6 8 10 9 5 6 8 8 9 10 10 9 9 5 2 2 2 2 2 4 6 7 8 9 9 10 10 10 11 12 13 13 13 14 14 13 13 12 12 12 11 11 11 11
6 8 9 8 5 6 8 9 10 11 11 11 8 6 2 2 2 2 1 3 5 6 7 8 9 9 10 11 11 11 12 13 13 14 14 13 13 12 12 12 12 12 11 12
4 6 7 8 7 7 9 10 11 11 10 10 9 6 2 2 2 2 1 1 3 4 6 7 8 9 10 11 11 12 12 13 13 14 14 13 13 13 13 12 12 12 12 11
5 5 7 8 6 8 11 9 10 9 8 9 8 3 1 1 2 3 3 1 0 1 3 5 6 7 8 9 10 11 12 12 13 13 13 13 13 13 13 13 13 12 12 11
5 6 6 6 6 12 1 2 3 5 5 4 4 2 1 1 3 4 4 3 3 2 1 2 3 5 6 7 8 9 11 12 12 12 12 12 12 12 11 12 12 11 10 10
4 6 6 6 9 7 3 1 2 4 2 3 2 1 1 3 4 6 7 6 4 4 3 1 1 2 4 6 7 8 9 10 10 10 10 11 11 11 11 10 10 9 9 9
4 6 7 7 9 7 3 4 2 4 4 3 3 2 1 2 3 4 7 6 6 6 4 3 2 2 3 4 6 8 8 8 8 9 9 9 9 9 9 9 8 8 8 8
7 6 8 8 8 2 5 2 3 6 2 4 4 3 2 2 4 5 5 6 6 6 7 6 5 5 3 2 5 6 6 6 6 6 6 6 6 7 6 6 6 6 7 7
5 5 5 6 7 2 5 1 2 4 4 2 3 3 3 5 6 6 6 6 7 7 8 8 7 7 6 5 5 6 5 4 4 5 5 5 4 4 4 5 4 4 5 5
1 2 2 2 2 5 4 4 4 3 2 2 1 1 4 6 7 7 7 7 8 8 8 8 9 9 9 8 7 7 5 4 5 6 6 5 4 3 3 3 4 3 3 2
2 1 1 1 2 2 4 4 4 4 3 2 2 2 5 7 8 8 7 8 8 9 9 9 10 11 10 9 8 8 7 6 7 7 6 5 5 5 4 2 2 2 2 2
1 1 1 2 2 3 4 6 6 5 5 5 6 7 9 10 10 9 9 9 9 9 10 10 10 10 10 9 9 8 7 7 7 7 6 5 5 5 5 5 4 3 3 3
0 1 2 0 3 2 4 4 6 6 7 9 10 11 11 12 12 12 11 10 10 11 10 11 11 11 10 9 9 8 7 7 6 6 5 4 4 4 4 5 5 9 7 8
Wind_Direction
192 212 217 216 226 262 270 262 257 262 261 259 259 268 245 200 212 209 202 197 195 196 188 184 184 183 182 182 180 179 180 176 173 174 176 178 179 177 179 184 178 181 182 179
193 220 225 228 227 241 244 251 254 236 188 259 270 266 240 209 215 216 209 205 204 196 188 185 185 185 185 184 185 183 181 177 178 178 178 184 178 179 179 184 175 182 185 184
212 212 211 216 220 228 237 246 257 273 253 228 261 243 200 195 207 207 209 209 211 204 198 189 190 191 190 188 188 187 183 179 181 179 174 171 165 172 178 181 177 182 185 190
226 218 208 215 221 228 235 244 265 264 256 238 251 278 191 193 207 207 206 207 209 203 199 194 193 192 192 190 186 185 183 183 181 180 180 177 181 184 184 180 174 176 184 188
211 211 213 223 225 228 248 261 258 254 252 260 228 268 233 180 224 211 199 201 202 196 196 196 192 189 188 186 183 182 181 181 181 183 184 185 189 186 175 172 168 177 180 189
226 207 225 230 227 224 218 215 223 235 246 248 249 271 277 168 260 205 185 189 193 190 190 190 186 183 182 181 180 177 176 179 180 184 185 189 186 180 175 174 171 179 179 187
216 214 212 222 213 199 212 225 223 220 223 239 178 261 296 32 43 237 193 187 182 180 180 178 177 177 175 174 173 173 172 177 181 183 186 189 186 183 181 179 179 183 183 188
206 205 199 206 223 210 212 232 248 256 252 237 184 250 13 92 104 148 184 179 173 173 170 172 173 172 170 168 169 170 173 176 179 182 185 188 186 186 185 186 182 187 191 190
212 201 177 202 221 234 215 230 256 264 266 270 238 221 190 161 170 164 169 173 175 172 166 169 169 168 169 168 169 173 176 174 176 179 179 184 187 190 186 183 187 188 189 181
228 216 183 182 200 216 250 233 224 246 262 260 250 236 266 151 155 164 173 177 172 171 169 166 167 166 167 169 170 173 172 171 173 175 178 181 185 186 183 185 189 186 184 181
227 228 189 191 212 201 199 217 237 246 259 264 264 228 70 35 61 164 169 172 171 175 171 168 167 167 167 166 165 169 171 171 174 178 180 181 184 184 185 189 189 187 185 183
214 234 224 208 186 279 236 235 225 240 241 252 273 262 87 73 80 131 147 155 163 171 170 168 166 167 168 168 169 172 176 176 177 179 180 182 184 184 186 188 190 188 187 189
189 224 223 201 192 199 222 225 236 247 255 251 257 219 112 100 87 107 133 151 159 169 170 168 169 172 174 174 176 177 180 180 179 179 182 184 185 187 190 190 189 189 190 192
219 225 243 245 236 202 214 218 225 235 245 249 250 260 151 82 69 88 119 158 165 171 176 175 176 179 179 179 180 182 183 183 182 182 185 186 189 190 192 193 190 191 194 195
229 228 236 258 261 242 237 232 227 235 255 270 273 270 308 14 26 36 115 168 168 173 179 180 182 183 184 184 183 186 185 186 185 186 190 189 191 191 194 194 194 194 198 201
229 242 235 239 240 242 246 242 240 242 251 257 261 267 12 39 50 54 57 180 181 179 184 189 189 188 190 190 189 188 189 188 188 191 193 191 193 193 195 196 197 197 200 204
205 223 239 242 231 241 237 237 243 246 248 256 262 275 332 349 50 32 23 9 270 195 193 198 198 197 196 196 192 192 191 187 190 195 196 193 195 197 198 200 199 201 202 203
231 232 238 243 228 239 175 32 279 262 267 280 283 298 314 39 75 59 40 26 22 6 302 218 208 200 199 196 191 192 188 186 188 193 195 193 196 199 200 202 204 204 204 204
229 230 241 238 236 236 175 149 290 263 243 7 341 337 25 125 140 95 50 34 29 21 5 340 252 200 187 187 184 181 183 182 184 188 191 192 193 194 196 199 200 200 201 204
189 224 238 235 242 242 112 72 336 261 208 50 24 14 357 218 229 84 49 39 38 34 33 34 55 107 140 171 173 170 174 177 183 186 187 186 185 188 191 195 198 198 200 205
191 209 230 239 244 225 60 25 252 239 85 40 23 18 23 34 39 70 60 49 45 46 46 49 57 63 73 126 154 157 159 166 171 168 166 169 172 177 182 187 192 194 196 198
220 215 221 235 238 183 54 1 327 16 21 14 9 19 60 85 94 90 76 66 56 54 54 56 61 58 52 66 104 114 117 127 134 137 138 142 151 163 163 166 173 183 193 190
267 341 319 317 10 49 28 16 7 345 328 342 338 23 108 109 102 94 85 75 67 61 60 62 67 65 57 57 71 89 91 107 118 119 118 118 121 124 126 137 148 157 171 191
125 360 233 194 111 54 38 34 35 33 37 34 60 117 123 112 104 95 87 78 72 69 68 67 68 68 62 55 59 67 76 86 97 102 104 106 109 109 107 111 124 135 150 175
58 227 214 170 115 81 50 44 49 52 63 76 81 90 104 106 101 96 88 81 76 73 68 66 67 67 64 60 58 57 65 80 88 90 94 100 103 102 97 84 57 67 63 35
92 290 284 102 107 100 78 65 71 78 81 87 92 91 91 95 96 91 84 78 74 73 70 67 65 66 65 64 63 59 61 73 84 88 85 87 91 90 96 104 94 58 64 69